QPF
0.03 0.03 0.02 0.01 0.02 0.02 0.03 0.04 0.05 0.03 0.02 0.04 0.09 0.14 0.16 0.15 0.15 0.13 0.12 0.14 0.11 0.06 0.04 0.03 0.02 0.02 0.02 0.01 0.01 0.02 0.02 0.02 0.02 0.02 0.03 0.03 0.02 0.02
0.02 0.03 0.02 0.02 0.02 0.02 0.02 0.03 0.03 0.03 0.03 0.02 0.03 0.05 0.07 0.08 0.11 0.08 0.06 0.09 0.10 0.06 0.03 0.04 0.04 0.03 0.02 0.02 0.02 0.02 0.01 0.02 0.02 0.02 0.02 0.02 0.03 0.02
0.03 0.04 0.03 0.03 0.02 0.02 0.02 0.03 0.02 0.02 0.02 0.02 0.02 0.02 0.02 0.04 0.07 0.05 0.04 0.05 0.06 0.05 0.03 0.03 0.03 0.02 0.01 0.01 0.01 0.02 0.02 0.01 0.01 0.01 0.01 0.01 0.01 0.02
0.05 0.06 0.05 0.04 0.03 0.03 0.03 0.02 0.02 0.02 0.02 0.02 0.02 0.01 0.02 0.03 0.05 0.06 0.04 0.04 0.05 0.04 0.03 0.02 0.01 0.01 0.01 0.01 0.01 0.01 0.01 0.01 0.01 0.01 0.01 0.01 0.01 0.01
0.07 0.09 0.07 0.05 0.03 0.03 0.03 0.02 0.02 0.02 0.02 0.01 0.01 0.02 0.03 0.03 0.04 0.05 0.05 0.04 0.04 0.03 0.03 0.02 0.01 0.01 0.01 0.01 0.01 0.01 0.01 0.01 0.01 0.01 0.01 0.00 0.00 0.00
0.06 0.06 0.05 0.04 0.02 0.02 0.02 0.02 0.02 0.02 0.03 0.02 0.02 0.03 0.03 0.03 0.04 0.05 0.05 0.04 0.04 0.03 0.02 0.02 0.01 0.02 0.01 0.01 0.01 0.01 0.01 0.01 0.01 0.01 0.00 0.00 0.00 0.00
0.07 0.06 0.04 0.03 0.03 0.03 0.03 0.02 0.02 0.02 0.02 0.02 0.02 0.03 0.03 0.03 0.03 0.03 0.04 0.04 0.04 0.02 0.01 0.01 0.01 0.01 0.01 0.01 0.01 0.01 0.01 0.01 0.01 0.01 0.00 0.00 0.00 0.00
0.07 0.06 0.04 0.03 0.05 0.05 0.04 0.03 0.03 0.02 0.02 0.03 0.02 0.02 0.01 0.01 0.02 0.03 0.06 0.05 0.04 0.02 0.02 0.01 0.01 0.01 0.01 0.01 0.01 0.01 0.01 0.01 0.01 0.01 0.01 0.01 0.00 0.00
0.09 0.07 0.04 0.03 0.04 0.04 0.03 0.02 0.02 0.03 0.03 0.02 0.01 0.01 0.01 0.02 0.03 0.04 0.05 0.05 0.04 0.03 0.02 0.01 0.01 0.01 0.01 0.01 0.01 0.01 0.01 0.01 0.01 0.01 0.01 0.01 0.01 0.01
0.07 0.06 0.04 0.03 0.03 0.03 0.03 0.02 0.02 0.01 0.01 0.01 0.01 0.02 0.02 0.03 0.04 0.04 0.04 0.04 0.03 0.03 0.03 0.02 0.02 0.01 0.01 0.01 0.01 0.01 0.01 0.01 0.01 0.01 0.01 0.01 0.01 0.01
0.05 0.06 0.06 0.04 0.03 0.04 0.04 0.02 0.02 0.01 0.01 0.01 0.02 0.03 0.02 0.03 0.02 0.02 0.02 0.03 0.03 0.03 0.02 0.02 0.02 0.01 0.01 0.01 0.01 0.01 0.01 0.01 0.02 0.01 0.01 0.01 0.01 0.01
0.05 0.05 0.07 0.05 0.04 0.04 0.04 0.02 0.02 0.01 0.01 0.02 0.03 0.01 0.01 0.01 0.01 0.01 0.01 0.02 0.03 0.02 0.02 0.02 0.02 0.02 0.01 0.01 0.01 0.01 0.01 0.01 0.01 0.02 0.01 0.01 0.01 0.01
0.05 0.05 0.05 0.06 0.06 0.05 0.04 0.03 0.03 0.03 0.03 0.03 0.02 0.01 0.01 0.01 0.01 0.01 0.01 0.02 0.02 0.02 0.01 0.02 0.02 0.02 0.02 0.01 0.01 0.01 0.01 0.01 0.01 0.01 0.01 0.01 0.01 0.01
0.06 0.06 0.06 0.07 0.08 0.08 0.07 0.06 0.06 0.05 0.04 0.03 0.03 0.02 0.02 0.02 0.02 0.01 0.01 0.01 0.01 0.01 0.02 0.02 0.03 0.03 0.04 0.03 0.01 0.01 0.01 0.01 0.01 0.02 0.02 0.02 0.02 0.02
0.06 0.08 0.09 0.09 0.09 0.08 0.08 0.08 0.07 0.05 0.03 0.02 0.02 0.02 0.02 0.02 0.02 0.02 0.02 0.01 0.01 0.02 0.03 0.03 0.04 0.04 0.05 0.03 0.02 0.01 0.02 0.02 0.03 0.04 0.05 0.05 0.04 0.03
0.07 0.08 0.09 0.09 0.09 0.09 0.08 0.07 0.06 0.05 0.04 0.03 0.03 0.03 0.03 0.02 0.02 0.03 0.03 0.03 0.04 0.04 0.04 0.04 0.04 0.04 0.04 0.03 0.03 0.03 0.03 0.05 0.08 0.10 0.11 0.11 0.10 0.08
0.10 0.09 0.09 0.08 0.08 0.07 0.08 0.07 0.06 0.04 0.04 0.03 0.04 0.04 0.04 0.04 0.04 0.05 0.06 0.07 0.06 0.06 0.06 0.05 0.05 0.05 0.04 0.04 0.04 0.04 0.05 0.08 0.11 0.11 0.10 0.09 0.10 0.12
0.10 0.08 0.08 0.07 0.07 0.07 0.06 0.06 0.05 0.05 0.04 0.03 0.03 0.03 0.03 0.04 0.04 0.05 0.06 0.07 0.06 0.05 0.04 0.05 0.06 0.05 0.04 0.04 0.04 0.05 0.07 0.07 0.06 0.06 0.05 0.04 0.05 0.05
0.08 0.06 0.05 0.05 0.05 0.05 0.04 0.04 0.04 0.04 0.04 0.05 0.04 0.04 0.04 0.04 0.03 0.03 0.03 0.03 0.03 0.03 0.04 0.04 0.04 0.04 0.04 0.03 0.02 0.03 0.04 0.04 0.04 0.04 0.03 0.03 0.04 0.05
0.06 0.05 0.05 0.05 0.05 0.05 0.04 0.04 0.03 0.03 0.03 0.04 0.04 0.05 0.05 0.04 0.03 0.02 0.02 0.02 0.02 0.02 0.02 0.03 0.04 0.05 0.05 0.05 0.03 0.03 0.03 0.03 0.03 0.04 0.03 0.03 0.04 0.05
0.05 0.05 0.05 0.05 0.05 0.04 0.03 0.03 0.03 0.03 0.04 0.04 0.04 0.04 0.03 0.02 0.02 0.02 0.02 0.02 0.02 0.01 0.01 0.01 0.02 0.04 0.05 0.05 0.05 0.04 0.04 0.04 0.04 0.04 0.04 0.04 0.04 0.04
0.06 0.05 0.06 0.06 0.05 0.04 0.04 0.03 0.03 0.04 0.05 0.04 0.04 0.03 0.02 0.02 0.02 0.03 0.02 0.02 0.01 0.01 0.01 0.01 0.01 0.02 0.04 0.06 0.07 0.06 0.06 0.05 0.04 0.04 0.04 0.04 0.05 0.04
0.08 0.07 0.06 0.05 0.05 0.05 0.05 0.04 0.03 0.04 0.05 0.05 0.04 0.03 0.02 0.02 0.02 0.02 0.02 0.02 0.02 0.02 0.01 0.01 0.01 0.01 0.02 0.04 0.05 0.05 0.07 0.07 0.06 0.05 0.03 0.03 0.03 0.03
MSLP
1011.88 1011.88 1011.91 1011.94 1011.94 1011.87 1011.74 1011.53 1011.25 1010.93 1010.59 1010.23 1009.89 1009.55 1009.25 1008.96 1008.70 1008.48 1008.29 1008.15 1008.07 1008.04 1008.07 1008.14 1008.25 1008.37 1008.50 1008.61 1008.72 1008.80 1008.88 1008.96 1009.05 1009.16 1009.28 1009.42 1009.57 1009.73
1012.15 1012.10 1012.07 1012.03 1011.97 1011.87 1011.72 1011.52 1011.27 1010.99 1010.70 1010.39 1010.09 1009.79 1009.50 1009.21 1008.94 1008.68 1008.44 1008.25 1008.11 1008.03 1008.01 1008.04 1008.12 1008.22 1008.34 1008.46 1008.56 1008.65 1008.72 1008.78 1008.83 1008.89 1008.96 1009.03 1009.10 1009.19
1012.43 1012.32 1012.22 1012.12 1012.01 1011.88 1011.72 1011.53 1011.32 1011.11 1010.88 1010.65 1010.42 1010.18 1009.93 1009.66 1009.38 1009.11 1008.84 1008.60 1008.40 1008.27 1008.19 1008.18 1008.23 1008.31 1008.42 1008.53 1008.63 1008.71 1008.77 1008.81 1008.84 1008.86 1008.88 1008.89 1008.90 1008.91
1012.69 1012.54 1012.39 1012.24 1012.08 1011.93 1011.76 1011.60 1011.45 1011.29 1011.15 1011.00 1010.85 1010.68 1010.47 1010.24 1009.98 1009.69 1009.40 1009.12 1008.88 1008.69 1008.57 1008.52 1008.52 1008.58 1008.66 1008.75 1008.84 1008.92 1008.97 1009.00 1009.00 1008.99 1008.97 1008.94 1008.90 1008.86
1012.93 1012.76 1012.57 1012.39 1012.21 1012.05 1011.89 1011.76 1011.65 1011.56 1011.48 1011.40 1011.32 1011.21 1011.06 1010.86 1010.61 1010.33 1010.03 1009.73 1009.46 1009.23 1009.07 1008.97 1008.94 1008.95 1009.00 1009.07 1009.14 1009.19 1009.22 1009.23 1009.22 1009.18 1009.14 1009.08 1009.01 1008.94
1013.14 1012.95 1012.76 1012.58 1012.40 1012.23 1012.09 1011.99 1011.91 1011.86 1011.83 1011.81 1011.77 1011.71 1011.59 1011.43 1011.20 1010.94 1010.64 1010.33 1010.05 1009.80 1009.60 1009.47 1009.39 1009.37 1009.38 1009.40 1009.43 1009.45 1009.45 1009.44 1009.40 1009.35 1009.29 1009.22 1009.14 1009.05
1013.27 1013.11 1012.93 1012.76 1012.60 1012.45 1012.34 1012.25 1012.19 1012.16 1012.16 1012.15 1012.14 1012.09 1012.00 1011.86 1011.66 1011.41 1011.14 1010.84 1010.56 1010.31 1010.10 1009.95 1009.84 1009.77 1009.73 1009.71 1009.69 1009.66 1009.62 1009.57 1009.51 1009.44 1009.37 1009.29 1009.21 1009.13
1013.29 1013.16 1013.03 1012.90 1012.77 1012.65 1012.56 1012.48 1012.43 1012.41 1012.40 1012.39 1012.37 1012.32 1012.24 1012.11 1011.94 1011.72 1011.48 1011.22 1010.97 1010.73 1010.53 1010.36 1010.23 1010.12 1010.04 1009.96 1009.89 1009.81 1009.72 1009.63 1009.53 1009.44 1009.35 1009.27 1009.20 1009.12
1013.16 1013.08 1013.00 1012.92 1012.84 1012.76 1012.69 1012.63 1012.58 1012.54 1012.50 1012.47 1012.43 1012.37 1012.29 1012.18 1012.03 1011.85 1011.65 1011.44 1011.24 1011.04 1010.86 1010.70 1010.56 1010.43 1010.30 1010.18 1010.05 1009.91 1009.78 1009.64 1009.51 1009.38 1009.28 1009.19 1009.11 1009.04
1012.86 1012.83 1012.80 1012.78 1012.75 1012.71 1012.67 1012.62 1012.57 1012.51 1012.45 1012.39 1012.33 1012.26 1012.17 1012.07 1011.96 1011.83 1011.68 1011.54 1011.39 1011.24 1011.10 1010.97 1010.83 1010.69 1010.54 1010.38 1010.21 1010.03 1009.85 1009.67 1009.49 1009.34 1009.21 1009.10 1009.00 1008.92
1012.38 1012.39 1012.42 1012.45 1012.47 1012.48 1012.47 1012.44 1012.39 1012.32 1012.25 1012.17 1012.09 1012.01 1011.93 1011.86 1011.78 1011.70 1011.62 1011.54 1011.45 1011.37 1011.27 1011.17 1011.06 1010.93 1010.78 1010.61 1010.41 1010.21 1009.99 1009.78 1009.57 1009.39 1009.22 1009.08 1008.96 1008.85
1011.77 1011.82 1011.88 1011.96 1012.03 1012.08 1012.10 1012.09 1012.06 1011.99 1011.92 1011.84 1011.76 1011.69 1011.63 1011.59 1011.55 1011.52 1011.50 1011.49 1011.46 1011.44 1011.40 1011.34 1011.26 1011.16 1011.03 1010.86 1010.67 1010.46 1010.24 1010.01 1009.79 1009.57 1009.38 1009.20 1009.04 1008.90
1011.11 1011.17 1011.26 1011.36 1011.47 1011.55 1011.60 1011.62 1011.61 1011.57 1011.51 1011.45 1011.39 1011.35 1011.32 1011.32 1011.32 1011.35 1011.38 1011.41 1011.45 1011.47 1011.48 1011.47 1011.44 1011.37 1011.28 1011.15 1010.99 1010.80 1010.59 1010.37 1010.14 1009.92 1009.69 1009.47 1009.27 1009.07
1010.48 1010.54 1010.64 1010.75 1010.87 1010.97 1011.05 1011.09 1011.11 1011.10 1011.08 1011.06 1011.04 1011.04 1011.05 1011.09 1011.14 1011.20 1011.27 1011.34 1011.41 1011.48 1011.53 1011.56 1011.58 1011.56 1011.52 1011.45 1011.34 1011.19 1011.02 1010.83 1010.61 1010.37 1010.13 1009.87 1009.61 1009.34
1009.99 1010.03 1010.12 1010.22 1010.34 1010.44 1010.53 1010.59 1010.64 1010.67 1010.69 1010.71 1010.74 1010.79 1010.85 1010.92 1011.00 1011.09 1011.19 1011.28 1011.38 1011.47 1011.55 1011.62 1011.68 1011.72 1011.74 1011.73 1011.68 1011.60 1011.48 1011.31 1011.11 1010.88 1010.61 1010.31 1009.99 1009.66
1009.71 1009.73 1009.79 1009.87 1009.96 1010.05 1010.13 1010.21 1010.27 1010.33 1010.39 1010.46 1010.54 1010.63 1010.73 1010.83 1010.93 1011.04 1011.14 1011.24 1011.35 1011.45 1011.55 1011.65 1011.75 1011.84 1011.92 1011.97 1011.99 1011.96 1011.89 1011.76 1011.57 1011.33 1011.04 1010.70 1010.33 1009.93
1009.69 1009.69 1009.71 1009.75 1009.80 1009.86 1009.93 1009.99 1010.06 1010.14 1010.24 1010.34 1010.46 1010.58 1010.70 1010.82 1010.94 1011.04 1011.14 1011.24 1011.33 1011.44 1011.55 1011.67 1011.80 1011.94 1012.06 1012.16 1012.23 1012.25 1012.21 1012.10 1011.92 1011.66 1011.34 1010.96 1010.52 1010.06
1009.94 1009.91 1009.89 1009.89 1009.90 1009.91 1009.94 1009.99 1010.05 1010.13 1010.24 1010.36 1010.50 1010.64 1010.77 1010.90 1011.01 1011.10 1011.19 1011.27 1011.35 1011.45 1011.57 1011.70 1011.85 1012.01 1012.17 1012.30 1012.40 1012.44 1012.41 1012.29 1012.10 1011.81 1011.44 1011.01 1010.52 1010.00
1010.39 1010.35 1010.30 1010.25 1010.21 1010.18 1010.17 1010.18 1010.22 1010.29 1010.40 1010.52 1010.66 1010.79 1010.92 1011.04 1011.14 1011.22 1011.29 1011.35 1011.42 1011.51 1011.63 1011.76 1011.92 1012.09 1012.26 1012.40 1012.49 1012.52 1012.47 1012.33 1012.09 1011.76 1011.34 1010.86 1010.32 1009.74
1010.98 1010.92 1010.85 1010.77 1010.69 1010.61 1010.56 1010.53 1010.55 1010.60 1010.68 1010.79 1010.91 1011.03 1011.15 1011.24 1011.32 1011.38 1011.43 1011.48 1011.54 1011.62 1011.73 1011.86 1012.02 1012.18 1012.33 1012.45 1012.52 1012.51 1012.42 1012.22 1011.93 1011.54 1011.07 1010.53 1009.95 1009.34
1011.61 1011.55 1011.47 1011.36 1011.24 1011.13 1011.05 1010.99 1010.97 1010.99 1011.05 1011.13 1011.22 1011.32 1011.41 1011.48 1011.53 1011.57 1011.60 1011.64 1011.69 1011.76 1011.86 1011.99 1012.13 1012.27 1012.39 1012.47 1012.48 1012.42 1012.26 1012.00 1011.64 1011.20 1010.68 1010.10 1009.49 1008.87
1012.20 1012.14 1012.05 1011.93 1011.79 1011.66 1011.55 1011.47 1011.43 1011.42 1011.44 1011.49 1011.56 1011.62 1011.68 1011.72 1011.75 1011.77 1011.78 1011.81 1011.85 1011.91 1012.00 1012.11 1012.22 1012.32 1012.40 1012.42 1012.37 1012.24 1012.01 1011.69 1011.27 1010.78 1010.23 1009.63 1009.02 1008.41
1012.67 1012.62 1012.52 1012.40 1012.26 1012.12 1012.00 1011.91 1011.84 1011.81 1011.81 1011.84 1011.87 1011.90 1011.92 1011.93 1011.94 1011.93 1011.93 1011.94 1011.97 1012.02 1012.09 1012.17 1012.25 1012.31 1012.33 1012.30 1012.18 1011.98 1011.69 1011.31 1010.85 1010.33 1009.77 1009.19 1008.60 1008.02
Thickness
5752 5751 5749 5748 5747 5746 5743 5739 5732 5726 5728 5736 5739 5743 5744 5743 5742 5740 5738 5736 5734 5732 5730 5728 5726 5723 5721 5719 5717 5715 5713 5711 5709 5707 5705 5703 5702 5700
5749 5748 5746 5745 5745 5744 5742 5739 5736 5730 5726 5731 5734 5738 5738 5738 5737 5735 5734 5733 5731 5729 5726 5725 5722 5720 5718 5716 5714 5711 5709 5707 5705 5702 5700 5699 5697 5695
5746 5744 5742 5742 5740 5739 5738 5736 5733 5730 5725 5728 5731 5732 5732 5731 5731 5730 5728 5727 5726 5724 5722 5720 5719 5716 5714 5712 5709 5707 5704 5702 5700 5697 5695 5693 5691 5689
5741 5740 5738 5738 5736 5735 5733 5731 5729 5728 5724 5722 5724 5725 5725 5726 5725 5723 5722 5722 5721 5719 5717 5715 5714 5711 5709 5706 5704 5701 5699 5697 5694 5692 5690 5688 5686 5684
5738 5736 5734 5733 5731 5730 5728 5727 5725 5725 5722 5719 5718 5719 5719 5720 5718 5716 5716 5715 5714 5713 5711 5709 5707 5705 5703 5700 5698 5695 5693 5691 5688 5686 5683 5681 5680 5678
5736 5733 5732 5730 5728 5726 5724 5722 5720 5718 5716 5713 5711 5711 5711 5712 5710 5707 5706 5706 5706 5706 5704 5703 5701 5699 5697 5694 5692 5689 5686 5684 5682 5679 5677 5675 5673 5671
5731 5729 5728 5728 5726 5724 5722 5718 5715 5712 5709 5707 5705 5704 5703 5702 5701 5701 5698 5697 5698 5698 5696 5695 5694 5692 5690 5688 5685 5682 5680 5678 5675 5673 5671 5668 5667 5665
5724 5723 5723 5722 5721 5720 5718 5716 5713 5708 5704 5701 5699 5697 5698 5698 5697 5695 5692 5688 5687 5691 5688 5687 5686 5684 5683 5681 5679 5676 5674 5671 5668 5666 5663 5661 5660 5658
5719 5717 5717 5717 5715 5713 5711 5710 5708 5707 5705 5700 5696 5694 5693 5693 5691 5688 5686 5683 5682 5684 5681 5678 5678 5676 5677 5675 5673 5670 5667 5665 5662 5659 5657 5655 5653 5651
5715 5713 5711 5710 5709 5707 5704 5701 5700 5699 5698 5697 5695 5693 5692 5690 5687 5684 5681 5678 5677 5676 5675 5670 5670 5669 5670 5668 5666 5663 5661 5658 5655 5653 5650 5648 5646 5644
5708 5707 5706 5704 5703 5701 5696 5693 5691 5691 5692 5691 5689 5687 5686 5684 5681 5676 5672 5668 5666 5666 5667 5664 5662 5660 5660 5659 5658 5656 5653 5651 5649 5646 5644 5642 5639 5637
5700 5700 5700 5698 5697 5693 5689 5686 5683 5683 5682 5681 5679 5678 5677 5676 5674 5671 5667 5662 5659 5658 5659 5656 5654 5651 5649 5650 5649 5648 5646 5644 5642 5640 5637 5634 5632 5629
5690 5690 5691 5690 5689 5686 5684 5681 5679 5677 5673 5671 5669 5668 5667 5667 5666 5664 5662 5659 5654 5652 5654 5650 5646 5643 5640 5640 5640 5640 5638 5637 5634 5632 5630 5627 5625 5622
5683 5682 5682 5681 5679 5678 5676 5675 5672 5669 5665 5661 5659 5657 5657 5657 5657 5656 5655 5653 5652 5650 5649 5646 5642 5638 5634 5631 5630 5631 5630 5628 5627 5625 5623 5621 5618 5615
5676 5675 5674 5672 5670 5668 5667 5665 5662 5659 5656 5652 5650 5650 5650 5649 5648 5647 5645 5644 5643 5642 5641 5639 5637 5634 5630 5626 5624 5622 5621 5620 5619 5617 5615 5613 5610 5608
5664 5664 5663 5661 5659 5658 5656 5654 5653 5651 5649 5646 5644 5642 5641 5639 5638 5636 5634 5632 5630 5630 5631 5631 5630 5627 5623 5621 5618 5615 5614 5611 5611 5609 5607 5605 5604 5602
5652 5650 5649 5648 5646 5645 5644 5643 5642 5641 5640 5638 5636 5633 5631 5629 5627 5626 5624 5621 5619 5618 5618 5619 5619 5618 5617 5614 5611 5609 5608 5606 5604 5602 5600 5598 5597 5597
5641 5640 5639 5638 5637 5637 5635 5634 5633 5631 5631 5629 5627 5625 5622 5619 5617 5614 5613 5611 5608 5607 5606 5607 5607 5606 5605 5605 5605 5602 5600 5599 5598 5596 5593 5591 5591 5592
5630 5630 5629 5629 5629 5628 5627 5625 5624 5623 5621 5619 5618 5616 5613 5611 5608 5605 5603 5601 5599 5597 5596 5596 5595 5594 5592 5592 5594 5595 5593 5591 5590 5589 5588 5586 5585 5586
5620 5621 5621 5620 5619 5618 5618 5617 5616 5614 5612 5609 5608 5607 5605 5602 5599 5596 5594 5593 5591 5588 5586 5585 5585 5584 5583 5583 5583 5584 5586 5584 5583 5581 5581 5581 5580 5581
5613 5613 5613 5613 5611 5610 5609 5609 5608 5606 5603 5601 5600 5598 5596 5593 5591 5589 5586 5584 5582 5580 5578 5577 5577 5578 5577 5575 5574 5575 5576 5576 5576 5575 5574 5573 5573 5573
5606 5606 5606 5605 5604 5603 5602 5601 5600 5598 5596 5594 5592 5590 5587 5585 5583 5581 5578 5576 5574 5572 5570 5569 5569 5569 5568 5566 5565 5566 5567 5568 5569 5569 5569 5570 5568 5567
5599 5599 5599 5597 5596 5596 5594 5593 5592 5590 5589 5586 5583 5581 5579 5577 5575 5572 5571 5569 5566 5564 5562 5560 5560 5559 5559 5559 5558 5557 5559 5559 5560 5561 5562 5565 5566 5566